Regional Weather Roundup
Issued by NWS Cleveland, OH

Home | Current Version | Previous Version | Graphics & Text | Print | Product List | Glossary On
Versions: 1 2 3 4 5 6 7 8 9 10 11 12 13 14 15 16 17 18 19 20 21 22 23 24 25 26 27 28 29 30 31 32 33 34 35 36 37 38 39 40 41 42 43 44 45 46 47 48 49 50
000
ASUS41 KCLE 252302
RWRCLE
OHIO REGIONAL WEATHER ROUNDUP
NATIONAL WEATHER SERVICE CLEVELAND, OH
600 PM EST SAT FEB 25 2017

NOTE: "FAIR" INDICATES FEW OR NO CLOUDS BELOW 12,000 FEET WITH NO
SIGNIFICANT WEATHER AND/OR OBSTRUCTIONS TO VISIBILITY.

OHZ001>008-015>018-024>027-034-035-043-044-260000-
   NORTHWEST OHIO

CITY           SKY/WX    TMP DP  RH WIND       PRES   REMARKS
DEFIANCE       FLURRIES  25  19  78 W12G20    29.91R WCI  14
FINDLAY        CLOUDY    28  16  60 W23G30    29.90R WCI  14
TOLEDO EXPRESS FLURRIES  27  18  69 W17G26    29.88R WCI  14
TOLEDO EXEC    CLOUDY    29  18  63 W23G32    29.88R WCI  15
LIMA           CLOUDY    26  20  77 W20G25    29.92R WCI  12
$$

OHZ009>014-019>023-028>033-038-089-260000-
   NORTHEAST OHIO

CITY           SKY/WX    TMP DP  RH WIND       PRES   REMARKS
CLE-HOPKINS    CLOUDY    32  19  58 W24G33    29.84R WCI  19
CLE-LAKEFRONT  CLOUDY    32  22  66 W31G38    29.81R WCI  17
CUY CO. ARPT   LGT SNOW  34  21  60 W17G29    29.80R WCI  23
LORAIN-ELYRIA  CLOUDY    29  19  66 W24G33    29.85R WCI  15
ASHTABULA      CLOUDY    31  25  78 W15G29    29.77R WCI  20
AKRON-CANTON   LGT SNOW  29  22  75 W21G33    29.82R WCI  16
WOOSTER        CLOUDY    29  19  66 W24G31    29.85R WCI  15
MANSFIELD      FLURRIES  26  18  71 W16G26    29.85R WCI  14
YOUNGSTOWN     FLURRIES  32  21  64 W24G37    29.76R WCI  19
$$

OHZ042-051>053-060>062-070>072-077>081-260000-
  SOUTHWEST OHIO

CITY           SKY/WX    TMP DP  RH WIND       PRES   REMARKS
CINC-COVINGTON CLOUDY    32  19  58 W10       29.99R WCI  24
CINC-LUNKEN    CLOUDY    33  20  58 W14G24    30.02R WCI  23
HAMILTON       CLOUDY    32  19  58 W12G18    30.01R WCI  23
DAYTON         FLURRIES  28  18  66 W17       29.96R WCI  16
WRIGHT-PAT AFB CLOUDY    29  18  64 W14G22    29.96R WCI  18
DAYTON GENERAL CLOUDY    30  19  63 W12G20    29.96R WCI  20
WILMINGTON     CLOUDY    29  18  63 W16G25    29.96R WCI  17
$$

OHZ036-037-039>041-045>050-054>059-063>069-073>076-082>088-260000-
  CENTRAL AND SOUTHEAST OHIO

CITY           SKY/WX    TMP DP  RH WIND       PRES   REMARKS
COLUMBUS       CLOUDY    31  20  63 W20G32    29.93R WCI  19
OSU AIRPORT    FLURRIES  29  19  66 W23G31    29.93R WCI  15
BOLTON FIELD   FLURRIES  28  21  74 W15G24    29.95R WCI  17
RICKENBACK AFB CLOUDY    30  20  67 W18G24    29.95R WCI  18
NEWARK         CLOUDY    31  21  66 W20G26    29.91R WCI  19
MARION         FLURRIES  28  17  63 W16G29    29.91R WCI  16
LANCASTER      CLOUDY    32  20  61 W18G25    29.94R WCI  20
ZANESVILLE     CLOUDY    32  19  58 W20G29    29.89R WCI  20
NEW PHILLY     NOT AVBL
$$




USA.gov is the U.S. government's official web portal to all federal, state and local government web resources and services.